Torna al catalogo

STARLINK-30885

AttivoComunicazioniVLEO
NORAD 58361·PAYLOAD·🇺🇸 United States

Lanciato Nov 18, 2023 da Cape Canaveral Space Force Station

Loading…

Prossimi Passaggi (prossime 24 ore)

TLE

AggiornatoSource: CelesTrak SupGP

Epoca: Sep 14, 2026, 22:12 UTC

1 58361C 23177L   26257.92548611 -.00070064  00000+0 -25372-2 0  2577
2 58361  43.0043   1.8013 0001694 265.2480 316.4444 15.27619913    10

Traccia STARLINK-30885 in tempo reale con AllMySat

Download on the App Store